SCP
-0 0 0 0 0 0 0 0 0 0 0 0 0 0 0 0 0 0 0 0 0 0 0 0 0 0 0 0 0 0 0 0 0 0 0 0 0 0 0 0 0 0 0
0 0 0 0 0 0 0 0 0 0 0 0 0 0 0 0 0 0 0 0 0 0 0 0 0 0 0 0 0 0 0 0 0 0 0 0 0 0 0 0 0 0 0
0 0 0 0 0 0 0 0 0 0 0 0 0 0 0 0 0 0 0 0 0 0 0 0 0 0 0 0 0 0 0 0 0 0 0 0 0 0 0 0 0 0 0
0 0 0 0 0 0 0 0 0 0 0 0 0 0 0 0 0 0 0 0 0 0 0 0 0 0 0 0 0 0 0 0 0 0 0 0 0 0 0 0 0 0 0
0 0 0 0 0 0 0 0 0 0 0 0 0 0 0 0 0 0 0 0 0 0 0 0 0 0 0 0 0 0 0 0 0 0 0 0 0 0 0 0 0 0 0
0 0 0 0 0 0 0 0 0 0 0 0 0 0 0 0 0 0 0 0 0 0 0 0 0 0 0 0 0 0 0 0 0 0 0 0 0 0 0 0 0 0 0
0 0 0 0 0 0 0 0 0 0 0 0 0 0 0 0 0 0 0 0 0 0 0 0 0 0 0 0 0 0 0 0 0 0 0 0 0 0 0 0 0 0 0
0 0 0 0 0 0 0 0 0 0 0 0 0 0 0 0 0 0 0 0 0 0 0 0 0 0 0 0 0 0 0 0 0 0 0 0 0 0 0 0 0 0 0
0 0 0 0 0 0 0 0 0 0 0 0 0 0 0 0 0 0 0 0 0 0 0 0 0 0 0 0 0 0 0 0 0 0 0 0 0 0 0 0 0 0 0
0 0 0 0 0 0 0 0 0 0 0 0 0 0 0 0 0 0 0 0 0 0 0 0 0 0 0 0 0 0 0 0 0 0 0 0 0 0 0 0 0 0 0
0 0 0 0 0 0 0 0 0 0 0 0 0 0 0 0 0 0 0 0 0 0 0 0 0 0 0 0 0 0 0 0 0 0 0 0 0 0 0 0 0 0 0
0 0 0 0 0 0 0 0 0 0 0 0 0 0 0 0 0 0 0 0 0 0 0 0 0 0 0 0 0 0 0 0 0 0 0 0 0 0 0 0 0 0 0
0 0 0 0 0 0 0 0 0 0 0 0 0 0 0 0 0 0 0 0 0 0 0 0 0 0 0 0 0 0 0 0 0 0 0 0 0 0 0 0 0 0 0
0 0 0 0 0 0 0 0 0 0 0 0 0 0 0 0 0 0 0 0 0 0 0 0 0 0 0 0 0 0 0 0 0 0 0 0 0 0 0 0 0 0 0
0 0 0 0 0 0 0 0 0 0 0 0 0 0 0 0 0 0 0 0 0 0 0 0 0 0 0 0 0 0 0 0 0 0 0 0 0 0 0 0 0 0 0
0 0 0 0 0 0 0 0 0 0 0 0 0 0 0 0 0 0 0 0 0 0 0 0 0 0 0 0 0 0 0 0 0 0 0 0 0 0 0 0 0 0 0
0 0 0 0 0 0 0 0 0 0 0 0 0 0 0 0 0 0 0 0 0 0 0 0 0 0 0 0 0 0 0 0 0 0 0 0 0 0 0 0 0 0 0
0 0 0 0 0 0 0 0 0 0 0 0 0 0 0 0 0 0 0 0 0 0 0 0 0 0 0 0 0 0 0 0 0 0 0 0 0 0 0 0 0 0 0
0 0 0 0 0 0 0 0 0 0 0 0 0 0 0 0 0 0 0 0 0 0 0 0 0 0 0 0 0 0 0 0 0 0 0 0 0 0 0 0 0 0 0
0 0 0 0 0 0 0 0 0 0 0 0 0 0 0 0 0 0 0 0 0 0 0 0 0 0 0 0 0 0 0 0 0 0 0 0 0 0 0 0 0 0 0
0 0 0 0 0 0 0 0 0 0 0 0 0 0 0 0 0 0 0 0 0 0 0 0 0 0 0 0 0 0 0 0 0 0 0 0 0 0 0 0 0 0 0
0 0 0 0 0 0 0 0 0 0 0 0 0 0 0 0 0 0 0 0 0 0 0 0 0 0 0 0 0 0 0 0 0 0 0 0 0 0 0 0 0 0 0
0 0 0 0 0 0 0 0 0 0 0 0 0 0 0 0 0 0 0 0 0 0 0 0 0 0 0 0 0 0 0 0 0 0 0 0 0 0 0 0 0 0 0
0 0 0 0 0 0 0 0 0 0 0 0 0 0 0 0 0 0 0 0 0 0 0 0 0 0 0 0 0 0 0 0 0 0 0 0 0 0 0 0 0 0 0
0 0 0 0 0 0 0 0 0 0 0 0 0 0 0 0 0 0 0 0 0 0 0 0 0 0 0 0 0 0 0 0 0 0 0 0 0 0 0 0 0 0 0
0 0 0 0 0 0 0 0 0 0 0 0 0 0 0 0 0 0 0 0 0 0 0 0 0 0 0 0 0 0 0 0 0 0 0 0 0 0 0 0 0 0 0
Wind_Speed
4 5 10 10 9 8 7 6 6 5 4 4 4 4 4 4 4 5 4 4 4 4 4 4 4 4 5 5 5 5 5 5 5 5 4 4 4 5 5 6 6 4 8
7 6 10 10 8 8 7 6 5 4 4 4 4 3 3 3 3 3 3 3 3 2 2 2 2 3 3 3 4 4 4 5 4 4 3 2 3 4 5 6 6 4 7
8 7 8 9 8 7 6 5 4 4 4 4 4 4 4 3 3 3 3 3 2 2 2 1 1 1 2 2 2 3 4 4 5 4 2 0 1 3 4 5 6 6 6
8 6 6 8 7 6 5 5 4 4 4 4 4 4 4 4 4 4 4 3 3 3 2 2 1 0 1 1 1 2 3 4 5 4 1 1 1 4 5 5 6 6 6
7 5 6 9 7 6 5 4 4 4 4 4 4 5 5 5 5 5 5 5 4 4 4 3 3 2 2 2 2 3 4 5 5 3 1 1 1 5 5 5 5 6 6
6 4 5 8 7 6 5 4 4 4 4 5 5 6 6 6 7 7 7 6 6 6 5 4 4 4 4 3 3 4 4 5 4 2 1 1 2 5 6 5 5 6 5
5 3 3 6 6 5 5 4 4 4 4 5 6 6 7 7 7 7 8 8 8 7 7 6 6 6 6 5 5 5 5 6 3 1 1 2 3 6 6 6 6 6 6
5 3 2 4 4 4 4 4 4 5 5 6 6 6 7 8 8 8 9 9 9 9 8 8 7 8 7 7 7 7 6 6 3 2 1 2 6 7 7 7 6 6 6
4 3 1 1 1 2 4 5 5 6 6 7 7 8 8 9 9 9 10 11 11 10 9 9 9 9 9 8 8 8 8 7 3 1 2 2 6 8 8 7 7 7 7
2 2 1 0 1 2 3 5 5 6 6 7 8 8 9 9 9 10 10 11 12 12 11 10 10 10 10 10 9 9 8 6 3 2 2 4 8 9 9 8 8 7 7
2 1 1 0 1 1 2 4 4 6 7 7 6 8 7 4 4 5 8 10 12 12 12 11 11 11 11 10 10 10 7 3 3 2 2 6 9 10 10 9 9 8 8
1 1 2 2 2 2 2 2 2 3 4 4 3 4 3 3 3 5 7 11 11 11 11 11 11 11 8 4 6 8 3 3 3 3 4 9 10 11 11 10 10 9 9
2 2 2 2 2 2 2 2 2 2 3 3 4 4 3 3 3 3 2 4 5 7 5 6 5 4 4 4 3 3 3 3 3 3 4 9 11 12 12 11 10 10 9
3 2 1 2 2 2 2 2 2 2 2 3 3 4 2 2 2 2 2 3 2 2 3 3 2 4 4 4 4 4 3 3 3 3 4 9 11 13 12 12 11 11 10
3 2 2 2 2 2 2 2 2 2 3 3 3 3 2 2 2 2 2 2 3 2 3 3 3 4 4 4 3 4 4 4 4 4 3 9 11 12 13 12 12 11 11
3 2 1 2 2 2 2 2 2 3 3 3 3 3 3 1 1 2 2 2 3 2 3 3 3 3 3 3 3 3 3 3 3 4 4 6 10 11 12 13 12 12 12
3 2 1 2 2 2 2 3 2 2 3 3 3 4 3 2 2 1 1 2 2 2 2 2 2 2 2 2 3 3 2 3 3 3 4 3 4 8 11 12 13 13 12
4 3 1 2 2 2 2 2 2 2 2 2 3 3 3 3 2 2 2 2 2 1 1 1 1 1 1 2 2 2 2 2 3 3 3 3 3 4 7 10 12 12 13
4 3 2 2 1 1 2 2 2 3 3 3 3 3 3 4 3 2 2 2 2 1 1 2 1 1 2 2 2 2 2 2 3 3 3 4 4 4 4 7 10 12 12
4 3 2 2 2 2 2 2 3 3 3 3 3 3 4 3 3 2 2 2 2 1 1 1 1 1 2 2 3 2 2 2 2 3 4 4 3 5 4 5 5 8 11
3 3 2 2 2 2 2 2 2 3 3 3 3 4 4 4 3 2 2 2 1 1 1 1 1 1 1 1 0 1 2 2 2 3 3 4 4 5 4 5 4 4 5
3 3 3 2 2 1 1 1 1 2 2 3 3 4 4 4 4 3 2 2 1 1 1 1 0 0 1 1 1 1 1 2 2 2 3 4 5 4 5 6 5 5 4
3 3 3 2 1 1 1 1 2 2 3 3 4 4 4 4 4 4 3 2 2 1 1 2 1 2 1 1 1 2 2 2 1 1 2 2 3 3 4 4 5 6 6
3 3 3 2 0 1 1 2 2 2 2 3 3 3 5 4 4 4 3 2 2 2 2 2 1 1 2 1 1 1 2 2 2 1 1 1 2 4 4 5 5 5 6
4 3 2 1 0 2 2 1 1 2 2 3 3 5 5 4 5 4 3 3 2 2 2 2 2 2 2 2 2 1 1 1 1 2 1 1 1 2 3 4 4 4 5
3 2 2 1 1 2 2 2 1 2 3 4 4 5 4 4 4 4 4 3 3 2 2 2 2 2 2 2 2 2 2 2 2 2 2 2 1 1 2 3 4 4 4
Wind_Direction
174 178 155 148 142 137 133 131 131 131 131 131 130 130 128 122 116 110 104 97 93 85 74 62 65 65 63 59 54 55 50 47 47 51 55 65 75 79 83 97 97 87 98
163 168 155 149 145 143 144 145 144 144 146 148 148 151 147 141 138 133 129 122 117 110 98 74 62 61 63 60 49 41 32 27 24 25 38 58 86 91 98 105 111 106 103
147 152 151 149 149 150 153 156 160 164 169 172 168 171 172 174 174 172 168 163 162 159 147 134 98 62 55 47 33 23 12 5 360 2 7 106 136 119 117 116 116 113 110
140 146 146 146 146 149 155 164 174 184 191 196 197 196 196 197 198 200 202 204 202 203 201 198 210 228 340 348 351 350 346 342 342 352 0 185 172 133 129 128 124 123 118
132 138 148 146 148 152 158 168 180 193 204 213 215 215 215 212 214 216 219 223 220 221 224 221 218 229 252 275 290 309 322 329 334 357 351 140 160 150 140 137 134 131 127
129 139 150 147 150 157 165 177 189 202 213 219 222 224 225 222 223 224 226 229 230 229 229 226 224 232 240 255 270 285 302 317 334 354 332 168 169 160 149 145 139 137 138
137 149 158 153 157 167 180 192 211 225 233 236 234 233 233 231 232 234 235 234 234 233 231 229 228 231 238 246 257 268 284 300 309 296 240 197 185 167 157 153 150 149 149
135 140 158 165 174 189 201 212 225 237 247 253 253 248 246 241 237 240 240 237 234 233 232 231 229 232 236 241 250 259 269 284 299 323 275 203 194 174 163 160 161 157 153
131 137 153 191 217 221 231 240 247 251 255 260 264 262 258 254 250 248 246 243 239 235 232 231 228 231 236 240 245 253 261 269 269 258 248 214 200 178 167 164 164 160 158
121 133 147 241 285 293 286 269 269 276 272 272 272 271 268 263 261 262 259 252 246 241 236 233 231 232 234 238 243 249 254 264 258 252 239 220 204 184 173 168 167 163 161
104 129 120 75 322 293 280 284 295 297 292 287 283 281 280 275 271 269 265 260 255 249 242 237 233 234 234 237 241 248 253 234 235 238 228 225 207 189 178 172 171 169 164
122 95 75 64 39 13 328 321 301 295 295 289 280 279 280 272 264 264 264 268 268 258 248 242 239 237 233 228 241 250 241 227 227 233 229 225 209 193 182 176 174 171 164
134 87 71 56 42 27 348 337 316 306 299 295 285 274 273 276 273 274 271 277 279 269 252 246 246 233 219 213 219 230 234 224 220 230 231 224 208 195 185 179 175 173 169
101 98 74 46 39 22 15 349 337 330 317 310 294 284 267 270 275 273 266 266 264 261 248 235 230 233 229 223 221 230 232 222 220 217 226 220 206 196 188 182 178 176 175
109 98 72 57 46 24 18 347 353 336 328 321 318 310 287 266 277 275 272 268 262 255 247 237 230 228 230 233 229 230 231 225 223 217 219 215 207 196 191 187 183 181 180
119 111 77 73 53 34 14 342 331 333 330 332 331 327 326 301 296 298 291 286 277 262 247 234 232 230 226 224 233 231 233 224 217 213 209 209 204 197 191 190 188 186 184
137 114 89 105 56 33 7 346 349 336 337 339 336 339 343 337 323 310 306 301 289 279 270 251 241 237 236 233 239 243 230 220 211 209 201 196 197 199 194 192 192 190 188
128 117 84 52 52 28 9 351 344 343 344 336 333 337 338 342 346 345 333 304 298 302 285 251 226 235 249 245 242 246 240 222 204 200 193 193 191 198 200 196 195 194 192
131 128 95 58 46 18 5 355 342 341 341 332 331 333 328 333 339 343 321 305 313 320 299 279 232 210 231 245 244 231 225 227 204 197 192 195 195 198 200 198 198 196 195
119 113 89 61 35 18 4 357 348 346 338 334 332 327 326 326 330 329 310 313 324 330 314 304 269 235 223 231 254 253 228 232 212 194 196 197 200 203 206 201 193 199 198
103 88 67 58 21 17 2 349 338 329 323 328 327 326 322 321 322 317 312 313 318 303 284 284 266 264 249 205 114 322 300 251 227 204 196 187 198 204 200 199 190 184 196
118 94 76 71 44 21 329 281 267 282 292 295 310 323 319 321 320 315 299 292 294 299 314 296 218 263 263 172 141 105 330 327 293 220 194 191 194 193 201 203 190 185 188
127 117 107 113 89 20 357 346 342 344 334 334 328 322 317 319 320 315 305 284 275 234 245 252 215 192 230 249 186 158 169 228 281 299 223 199 190 192 201 202 193 186 188
158 145 127 131 115 333 2 12 356 339 320 299 299 304 312 317 318 315 306 294 275 250 238 241 218 195 184 220 255 215 204 190 182 291 318 250 200 200 201 205 199 192 188
166 155 149 133 319 325 350 4 2 329 297 299 309 320 321 317 315 313 305 302 294 273 254 245 232 215 193 197 200 208 224 221 193 177 239 275 250 220 206 205 195 191 189
165 153 151 145 281 315 339 352 352 319 319 327 326 327 323 316 315 316 311 305 294 279 263 250 230 225 219 216 208 195 190 197 196 182 200 215 224 242 217 208 201 196 191